Flag for South Africa Weather past 2 weeks in Rustenburg, South Africa

Now
52 °F

Sunny.


Feels Like: 52 °F
Forecast: 43 / 69 °F
Wind: No wind

Location: Lanseria Civ / Mil

Current Time: Jul 6, 2015 at 9:34:52 AM

Latest Report: Jul 6, 2015 at 9:00 AM


Visibility: 10 mi

Pressure: 30.45 "Hg (26.47 "Hg at 1166m altitude)

Humidity: 54%

Dew point: 36 °F

Location of RustenburgLocation

Historic Weather in Rustenburg — Graph

°F

Rustenburg temperature yesterday

Maximum temperature yesterday: 72 °F (at 3:00 PM)
Minimum temperature yesterday: 39 °F (at 7:00 AM)
Average temperature yesterday: 54 °F

Past Weeks' High & Low Weather Summary

 TemperatureHumidityPressure
High72 °F (Jul 5, 3:00 PM)100% (Jun 28, 4:00 AM)30.57 "Hg (Jun 28, 4:00 AM)
Low36 °F (Jun 23, 7:00 AM)17% (Jun 25, 2:00 PM)30.24 "Hg (Jun 24, 2:00 PM)
Average53 °F57%30.38 "Hg
* Reported Jun 21 8:00 AM — Jul 6 8:00 AM, Rustenburg, Weather by CustomWeather, © 2015

Note: Actual official high and low records may vary slightly from our data, if they occured in-between our weather recording intervals... More about our weather records

Advertising

Rustenburg weather history for previous 24 hours

 ConditionsComfort  
Time TempWeatherWind HumidityBarometerVisibility
8:00 AM
Mon, Jul 6
45 °FSunny.No wind71%30.42 "Hg10 mi
7:00 AM41 °FSunny.No wind76%30.39 "Hg10 mi
6:00 AM41 °FSunny.6 mph76%30.39 "Hg10 mi
5:00 AM43 °FQuite cool.5 mph66%30.36 "HgN/A
4:00 AM45 °FQuite cool.No wind61%30.36 "HgN/A
3:00 AM45 °FQuite cool.5 mph66%30.36 "HgN/A
2:00 AM46 °FCool.5 mph62%30.36 "HgN/A
1:00 AM46 °FCool.6 mph57%30.39 "HgN/A
12:00 AM52 °FCool.No wind50%30.39 "HgN/A
11:00 PM
Sun, Jul 5
50 °FCool.3 mph54%30.36 "HgN/A
10:00 PM52 °FClear.3 mph47%30.36 "Hg10 mi
9:00 PM57 °FPassing clouds.5 mph39%30.36 "HgN/A
8:00 PM57 °FClear.6 mph39%30.33 "Hg10 mi
7:00 PM59 °FPassing clouds.3 mph36%30.33 "HgN/A
6:00 PM63 °FClear.5 mph32%30.30 "Hg10 mi
5:00 PM66 °FClear.8 mph26%30.30 "Hg10 mi
4:00 PM70 °FSunny.6 mph21%30.27 "Hg10 mi
3:00 PM72 °FPassing clouds.6 mph20%30.27 "HgN/A
2:00 PM70 °FPassing clouds.5 mph21%30.30 "HgN/A
1:00 PM70 °FSunny.3 mph25%30.33 "Hg10 mi
12:00 PM68 °FPassing clouds.5 mph28%30.36 "HgN/A
11:00 AM64 °FSunny.2 mph34%30.36 "Hg10 mi
10:00 AM57 °FSunny.No wind48%30.39 "Hg10 mi
9:00 AM52 °FSunny.No wind62%30.39 "Hg10 mi
Weather by CustomWeather, © 2015

See weather overviewHow to use our weather pages